• en Belgique
  • Liste des pays
  • À 7 jours
  • Température de l'eau
  • Carte satellitaire
  • Carte météo
  • Widgets météo
  • user-avatar
    Se connecter

    Météo par heure à Binche

    Ce jour, 23 Février, Vendredi

    Heure Température Précipitation Vent Pression Humidité
    00:00 -4°C° 0 mm 4 m/s 754 mmHg 67%
    01:00 -4°C° 0 mm 4 m/s 754 mmHg 67%
    02:00 -4°C° 0 mm 4 m/s 754 mmHg 66%
    03:00 -5°C° 0 mm 4 m/s 753 mmHg 66%
    04:00 -5°C° 0 mm 4 m/s 754 mmHg 66%
    05:00 -5°C° 0 mm 4 m/s 754 mmHg 66%
    06:00 -6°C° 0 mm 5 m/s 754 mmHg 66%
    07:00 -5°C° 0 mm 5 m/s 754 mmHg 61%
    08:00 -4°C° 0 mm 6 m/s 753 mmHg 55%
    09:00 -3°C° 0 mm 6 m/s 753 mmHg 50%
    10:00 -2°C° 0 mm 6 m/s 753 mmHg 46%
    11:00 -1°C° 0 mm 6 m/s 753 mmHg 42%
    12:00 0°C° 0 mm 7 m/s 753 mmHg 39%
    13:00 +1°C° 0 mm 6 m/s 752 mmHg 38%
    14:00 +1°C° 0 mm 6 m/s 752 mmHg 38%
    15:00 +1°C° 0 mm 6 m/s 752 mmHg 38%
    16:00 -1°C° 0 mm 6 m/s 752 mmHg 41%
    17:00 -1°C° 0 mm 5 m/s 752 mmHg 44%
    18:00 -3°C° 0 mm 4 m/s 752 mmHg 48%
    19:00 -4°C° 0 mm 5 m/s 752 mmHg 47%
    20:00 -5°C° 0 mm 5 m/s 752 mmHg 47%
    21:00 -5°C° 0 mm 5 m/s 752 mmHg 47%
    22:00 -5°C° 0 mm 5 m/s 752 mmHg 46%
    23:00 -5°C° 0 mm 4 m/s 752 mmHg 46%

    Demain, 24 Février, Samedi

    Heure Température Précipitation Vent Pression Humidité
    00:00 -5°C° 0 mm 4 m/s 753 mmHg 45%
    01:00 -5°C° 0 mm 4 m/s 752 mmHg 44%
    02:00 -6°C° 0 mm 5 m/s 752 mmHg 44%
    03:00 -6°C° 0 mm 5 m/s 752 mmHg 43%
    04:00 -6°C° 0 mm 5 m/s 753 mmHg 42%
    05:00 -6°C° 0 mm 5 m/s 753 mmHg 41%
    06:00 -6°C° 0 mm 5 m/s 753 mmHg 40%
    07:00 -5°C° 0 mm 6 m/s 753 mmHg 35%
    08:00 -4°C° 0 mm 7 m/s 753 mmHg 31%
    09:00 -3°C° 0 mm 7 m/s 753 mmHg 26%
    10:00 -1°C° 0 mm 7 m/s 753 mmHg 27%
    11:00 0°C° 0 mm 7 m/s 754 mmHg 28%
    12:00 +3°C° 0 mm 7 m/s 754 mmHg 29%
    13:00 +3°C° 0 mm 7 m/s 753 mmHg 32%
    14:00 +3°C° 0 mm 7 m/s 753 mmHg 35%
    15:00 +3°C° 0 mm 7 m/s 753 mmHg 38%
    16:00 0°C° 0 mm 7 m/s 754 mmHg 44%
    17:00 -1°C° 0 mm 6 m/s 754 mmHg 49%
    18:00 -3°C° 0 mm 6 m/s 754 mmHg 54%
    19:00 -3°C° 0 mm 6 m/s 755 mmHg 52%
    20:00 -4°C° 0 mm 6 m/s 755 mmHg 50%
    21:00 -5°C° 0 mm 6 m/s 755 mmHg 49%
    22:00 -5°C° 0 mm 5 m/s 755 mmHg 50%
    23:00 -5°C° 0 mm 5 m/s 756 mmHg 51%

    Après-demain, 25 Février, Dimanche

    Heure Température Précipitation Vent Pression Humidité
    00:00 -6°C° 0 mm 5 m/s 756 mmHg 53%
    01:00 -6°C° 0 mm 5 m/s 756 mmHg 52%
    02:00 -6°C° 0 mm 5 m/s 756 mmHg 51%
    03:00 -6°C° 0 mm 5 m/s 756 mmHg 50%
    04:00 -6°C° 0 mm 5 m/s 756 mmHg 48%
    05:00 -8°C° 0 mm 6 m/s 757 mmHg 46%
    06:00 -8°C° 0 mm 6 m/s 757 mmHg 44%
    07:00 -6°C° 0 mm 6 m/s 757 mmHg 38%
    08:00 -6°C° 0 mm 7 m/s 758 mmHg 32%
    09:00 -6°C° 0 mm 7 m/s 758 mmHg 26%
    10:00 -4°C° 0 mm 7 m/s 758 mmHg 25%
    11:00 -3°C° 0 mm 7 m/s 758 mmHg 23%
    12:00 -2°C° 0 mm 7 m/s 758 mmHg 21%
    13:00 -2°C° 0 mm 7 m/s 758 mmHg 23%
    14:00 -1°C° 0 mm 7 m/s 758 mmHg 25%
    15:00 -1°C° 0 mm 7 m/s 758 mmHg 26%
    16:00 -3°C° 0 mm 6 m/s 758 mmHg 31%
    17:00 -4°C° 0 mm 5 m/s 758 mmHg 35%
    18:00 -5°C° 0 mm 5 m/s 758 mmHg 39%
    19:00 -6°C° 0 mm 5 m/s 759 mmHg 41%
    20:00 -6°C° 0 mm 5 m/s 759 mmHg 43%
    21:00 -6°C° 0 mm 5 m/s 759 mmHg 45%
    22:00 -7°C° 0 mm 5 m/s 760 mmHg 47%
    23:00 -7°C° 0 mm 4 m/s 760 mmHg 48%

    26 Février, Lundi

    Heure Température Précipitation Vent Pression Humidité
    00:00 -7°C° 0 mm 4 m/s 760 mmHg 50%
    01:00 -7°C° 0 mm 4 m/s 760 mmHg 52%
    02:00 -7°C° 0 mm 4 m/s 759 mmHg 54%
    03:00 -8°C° 0 mm 4 m/s 759 mmHg 56%
    04:00 -8°C° 0 mm 4 m/s 759 mmHg 58%
    05:00 -8°C° 0 mm 4 m/s 759 mmHg 60%
    06:00 -8°C° 0 mm 4 m/s 759 mmHg 62%
    07:00 -7°C° 0 mm 5 m/s 759 mmHg 58%
    08:00 -7°C° 0 mm 5 m/s 759 mmHg 55%
    09:00 -6°C° 0 mm 6 m/s 759 mmHg 52%
    10:00 -5°C° 0 mm 6 m/s 759 mmHg 48%
    11:00 -5°C° 0 mm 6 m/s 759 mmHg 44%
    12:00 -4°C° 0 mm 6 m/s 758 mmHg 40%
    13:00 -4°C° 0 mm 6 m/s 758 mmHg 39%
    14:00 -4°C° 0 mm 6 m/s 758 mmHg 38%
    15:00 -4°C° 0 mm 7 m/s 757 mmHg 37%
    16:00 -5°C° 0 mm 6 m/s 757 mmHg 40%
    17:00 -6°C° 0 mm 5 m/s 757 mmHg 43%
    18:00 -7°C° 0 mm 4 m/s 757 mmHg 46%
    19:00 -7°C° 0 mm 4 m/s 757 mmHg 47%
    20:00 -7°C° 0 mm 4 m/s 757 mmHg 48%
    21:00 -8°C° 0 mm 5 m/s 757 mmHg 49%
    22:00 -8°C° 0 mm 4 m/s 757 mmHg 50%
    23:00 -8°C° 0 mm 4 m/s 757 mmHg 51%

    27 Février, Mardi

    Heure Température Précipitation Vent Pression Humidité
    00:00 -8°C° 0 mm 4 m/s 757 mmHg 53%
    01:00 -8°C° 0 mm 4 m/s 757 mmHg 54%
    02:00 -8°C° 0 mm 4 m/s 756 mmHg 55%
    03:00 -9°C° 0 mm 4 m/s 756 mmHg 56%
    04:00 -9°C° 0 mm 4 m/s 756 mmHg 55%
    05:00 -9°C° 0 mm 4 m/s 756 mmHg 54%
    06:00 -9°C° 0 mm 4 m/s 755 mmHg 53%
    07:00 -9°C° 0 mm 4 m/s 755 mmHg 53%
    08:00 -8°C° 0 mm 5 m/s 755 mmHg 52%
    09:00 -7°C° 0 mm 5 m/s 755 mmHg 51%
    10:00 -6°C° 0 mm 5 m/s 755 mmHg 46%
    11:00 -6°C° 0 mm 5 m/s 754 mmHg 42%
    12:00 -5°C° 0 mm 5 m/s 754 mmHg 37%
    13:00 -5°C° 0 mm 6 m/s 753 mmHg 34%
    14:00 -5°C° 0 mm 6 m/s 753 mmHg 32%
    15:00 -5°C° 0 mm 6 m/s 752 mmHg 29%
    16:00 -6°C° 0 mm 5 m/s 752 mmHg 32%
    17:00 -7°C° 0 mm 4 m/s 752 mmHg 35%
    18:00 -7°C° 0 mm 3 m/s 752 mmHg 38%
    19:00 -7°C° 0 mm 3 m/s 752 mmHg 39%
    20:00 -7°C° 0 mm 3 m/s 752 mmHg 39%
    21:00 -7°C° 0 mm 3 m/s 752 mmHg 40%
    22:00 -8°C° 0 mm 3 m/s 752 mmHg 40%
    23:00 -8°C° 0 mm 3 m/s 752 mmHg 41%

    28 Février, Mercredi

    Heure Température Précipitation Vent Pression Humidité
    00:00 -7°C° 0 mm 2 m/s 752 mmHg 41%
    01:00 -7°C° 0 mm 2 m/s 752 mmHg 42%
    02:00 -8°C° 0 mm 2 m/s 751 mmHg 42%
    03:00 -8°C° 0 mm 2 m/s 751 mmHg 43%
    04:00 -8°C° 0 mm 2 m/s 751 mmHg 43%
    05:00 -8°C° 0 mm 2 m/s 751 mmHg 43%
    06:00 -9°C° 0 mm 2 m/s 751 mmHg 43%
    07:00 -9°C° 0 mm 3 m/s 751 mmHg 39%
    08:00 -8°C° 0 mm 3 m/s 751 mmHg 35%
    09:00 -8°C° 0 mm 4 m/s 750 mmHg 31%
    10:00 -7°C° 0 mm 4 m/s 750 mmHg 29%
    11:00 -5°C° 0 mm 4 m/s 750 mmHg 27%
    12:00 -5°C° 0 mm 4 m/s 749 mmHg 25%
    13:00 -5°C° 0 mm 4 m/s 748 mmHg 24%
    14:00 -5°C° 0 mm 5 m/s 748 mmHg 24%
    15:00 -5°C° 0 mm 5 m/s 747 mmHg 24%
    16:00 -5°C° 0 mm 4 m/s 747 mmHg 27%
    17:00 -7°C° 0 mm 4 m/s 746 mmHg 30%
    18:00 -8°C° 0 mm 4 m/s 746 mmHg 33%
    19:00 -8°C° 0 mm 4 m/s 746 mmHg 34%
    20:00 -8°C° 0 mm 5 m/s 745 mmHg 35%
    21:00 -8°C° 0 mm 5 m/s 745 mmHg 36%
    22:00 -10°C° 0 mm 5 m/s 744 mmHg 36%
    23:00 -10°C° 0 mm 6 m/s 744 mmHg 36%
    Voir plus